[[{"header":{"parameterUnit":"m.s-1","parameterCategory":1,"la1":30.2992,"la2":30.254,"lo1":-89.0895,"lo2":-89.0443,"dy":0.0025,"dx":0.0025,"nx":19,"ny":19,"refTime":"2026-05-03T03:00:00:Z","depth":0,"parameterNumber":2,"parameterNumberName":"U-component_of_WINDS"},"data":[0,0,0,0.962,0.9619,0.9566,0.9566,0.951,0.951,0,0,0,0,0,0,0,0,0,0,0,0.9644,0.9644,0.962,0.9619,0.9566,0.9566,0.951,0.951,0,0,0,0,0,0,0,0,0,0,0,0.9644,0.9644,0.9644,0.9618,0.9566,0.9566,0.951,0.9545,0,0,0,0,0,0,0,0,0,0,0.9594,0.9626,0.9644,0.9644,0.9618,0.9566,0.9566,0.9547,0.9543,0.9539,0,0.9539,0,0.9524,0.9507,0.9507,0,0,0,0.9612,0.9629,0.9607,0.9644,0.9618,0.9566,0.9588,0.9545,0.954,0.9534,0.9538,0.9536,0.9523,0.9506,0.9506,0.9507,0.9507,0,0,0.9615,0.9639,0.961,0.9605,0.9615,0.959,0.9586,0.9542,0.9548,0.9538,0.9534,0.9522,0.9506,0.9506,0.9507,0.9507,0,0,0,0.9628,0.9641,0.962,0.9607,0.9597,0.9588,0.9585,0.9549,0.9541,0.9534,0.9521,0.9506,0.9505,0.9506,0.9507,0.9545,0,0,0,0.9629,0.9649,0.9622,0.9636,0.9598,0.9573,0.9593,0.9544,0.9538,0.9521,0.9506,0.9505,0.9506,0.9506,0.9543,0.9559,0,0,0,0.9644,0.965,0.9646,0.9637,0.9616,0.9573,0.9561,0.9542,0.9531,0.9507,0.9505,0.9506,0.9506,0.9542,0.9556,0.9565,0,0,0,0.9667,0.9682,0.9647,0.9658,0.9616,0.9598,0.9561,0.9547,0.9531,0.9506,0.9506,0.9507,0.9541,0.9555,0.9563,0.9575,0.9583,0,0,0.9699,0.9687,0.9691,0.9658,0.9652,0.9604,0.9603,0.9565,0.9541,0.9519,0.9519,0.9544,0.9556,0.9564,0.9621,0.9627,0,0,0,0.9709,0.9712,0.9705,0.9692,0.9663,0.9639,0.9599,0.9585,0.9565,0.9535,0.9549,0.9556,0.9559,0.9564,0.9569,0.957,0.951,0.951,0.951,0.9788,0.9756,0.976,0.972,0.9707,0.9664,0.965,0.9622,0.9594,0.9598,0.9591,0.9629,0.9636,0.9639,0.9641,0.9596,0.9596,0.9596,0.9596,0.983,0.9829,0.9789,0.9779,0.9744,0.9734,0.9692,0.9672,0.9656,0.9632,0.9634,0.961,0.9648,0.9646,0.9599,0.9598,0.9598,0.9598,0.9597,0.9877,0.9871,0.9853,0.9828,0.9811,0.977,0.9756,0.9724,0.9694,0.9696,0.9684,0.9683,0.9677,0.9693,0.9693,0.9693,0.9693,0.9693,0.9693,0.9933,0.9912,0.9905,0.9874,0.986,0.9836,0.9792,0.9776,0.9749,0.9727,0.9727,0.9696,0.9658,0.9648,0.9695,0.9695,0.9694,0.9694,0.9694,0.9986,0.9968,0.9958,0.9943,0.9903,0.9887,0.9846,0.9816,0.9798,0.9791,0.976,0.9737,0.9722,0.9718,0.9709,0.9769,0.9769,0.9769,0.9769,1.0025,1.0014,0.9994,0.9972,0.9947,0.9909,0.9894,0.9859,0.9819,0.9805,0.9791,0.9778,0.9775,0.9761,0.9755,0.9747,0.9815,0.9815,0.9815,1.0054,1.0039,1.0034,0.9996,0.9962,0.9932,0.9917,0.9891,0.9842,0.9816,0.9792,0.979,0.9768,0.9763,0.9737,0.9729,0.9713,0,0]},{"header":{"parameterUnit":"m.s-1","parameterCategory":1,"la1":30.2992,"la2":30.254,"lo1":-89.0895,"lo2":-89.0443,"dy":0.0025,"dx":0.0025,"nx":19,"ny":19,"refTime":"2026-05-03T03:00:00:Z","depth":0,"parameterNumber":3,"parameterNumberName":"V-component_of_WINDS"},"data":[0,0,0,-0.8765,-0.8766,-0.8852,-0.8852,-0.8939,-0.894,0,0,0,0,0,0,0,0,0,0,0,-0.8725,-0.8725,-0.8764,-0.8766,-0.8852,-0.8852,-0.8939,-0.894,0,0,0,0,0,0,0,0,0,0,0,-0.8725,-0.8725,-0.8725,-0.8766,-0.8852,-0.8852,-0.8939,-0.8882,0,0,0,0,0,0,0,0,0,0,-0.8803,-0.8752,-0.8725,-0.8725,-0.8767,-0.8852,-0.8853,-0.888,-0.8886,-0.889,0,-0.889,0,-0.8916,-0.8944,-0.8944,0,0,0,-0.8777,-0.8747,-0.8783,-0.8725,-0.8767,-0.8852,-0.8816,-0.8884,-0.889,-0.8898,-0.8891,-0.8895,-0.8917,-0.8944,-0.8945,-0.8931,-0.8931,0,0,-0.8772,-0.8732,-0.8778,-0.8787,-0.8772,-0.8813,-0.8819,-0.8888,-0.8878,-0.8891,-0.8897,-0.8919,-0.8945,-0.8945,-0.8932,-0.8931,0,0,0,-0.8751,-0.8728,-0.8764,-0.8782,-0.88,-0.8816,-0.8822,-0.8875,-0.889,-0.8898,-0.892,-0.8945,-0.8946,-0.8933,-0.8932,-0.8863,0,0,0,-0.8749,-0.8716,-0.8761,-0.8737,-0.8798,-0.8838,-0.8807,-0.8885,-0.8894,-0.8919,-0.8945,-0.8946,-0.8933,-0.8932,-0.8867,-0.8837,0,0,0,-0.8724,-0.8714,-0.8721,-0.8735,-0.877,-0.8838,-0.8857,-0.8888,-0.8907,-0.8944,-0.8947,-0.8934,-0.8932,-0.8869,-0.8842,-0.882,0,0,0,-0.8686,-0.8659,-0.8719,-0.8699,-0.8769,-0.8796,-0.8857,-0.8879,-0.8903,-0.8945,-0.8933,-0.8932,-0.887,-0.8845,-0.8823,-0.8793,-0.8778,0,0,-0.863,-0.8651,-0.8642,-0.8698,-0.8703,-0.8786,-0.8781,-0.8842,-0.8882,-0.8913,-0.8913,-0.8865,-0.8842,-0.8821,-0.8708,-0.8695,0,0,0,-0.8611,-0.8604,-0.8614,-0.8635,-0.8681,-0.8717,-0.8782,-0.8805,-0.8833,-0.889,-0.8854,-0.8842,-0.8831,-0.8818,-0.8808,-0.88,-0.8925,-0.8925,-0.8925,-0.8473,-0.8527,-0.8515,-0.8579,-0.8599,-0.8667,-0.8688,-0.873,-0.8779,-0.8769,-0.8778,-0.8703,-0.8687,-0.8679,-0.867,-0.8769,-0.8768,-0.8768,-0.8768,-0.8395,-0.8393,-0.8459,-0.847,-0.8527,-0.8538,-0.8604,-0.8638,-0.8656,-0.8701,-0.8694,-0.8736,-0.8663,-0.8659,-0.8763,-0.8764,-0.8765,-0.8765,-0.8765,-0.8309,-0.8317,-0.8345,-0.8381,-0.8403,-0.847,-0.8484,-0.8537,-0.8586,-0.8579,-0.8593,-0.8595,-0.8601,-0.8583,-0.8583,-0.8582,-0.8582,-0.8582,-0.8582,-0.8207,-0.8241,-0.8247,-0.8293,-0.8314,-0.8347,-0.8417,-0.8439,-0.8476,-0.8513,-0.8513,-0.8561,-0.8647,-0.8666,-0.8578,-0.8579,-0.8579,-0.8579,-0.858,-0.8104,-0.8136,-0.8143,-0.8164,-0.8223,-0.8241,-0.8309,-0.8348,-0.8374,-0.838,-0.8431,-0.8486,-0.8511,-0.852,-0.8536,-0.842,-0.842,-0.842,-0.842,-0.8029,-0.8047,-0.8067,-0.8096,-0.8131,-0.8193,-0.8201,-0.8255,-0.8316,-0.8335,-0.836,-0.8387,-0.8394,-0.8415,-0.8426,-0.8442,-0.8304,-0.8304,-0.8304,-0.7967,-0.7992,-0.7987,-0.8047,-0.8098,-0.814,-0.8149,-0.818,-0.8256,-0.83,-0.8351,-0.8356,-0.84,-0.8411,-0.8453,-0.847,-0.8499,0,0]}]]